Location: ????????
(55.3939°N, 37.4780°E)
Time: 19:36:01
(UTC+00:00)

ARIANE 6 FM1 Upper Stage - Pass Details

Date: 14 April 2026
Orbit: 526 x 601 km, 62.0° (Epoch: 19 May)

Event Time Altitude Azimuth Distance (km) Brightness Sun altitude
Rises 21:39:14 0° 301° (WNW) 2,688 6.5 -24.9°
Reaches altitude 10° 21:41:31 10° 307° (NW) 1,789 5.6 -24.9°
Maximum altitude 21:45:25 48° 23° (NNE) 700 3.4 -24.9°
Enters shadow 21:46:20 39° 65° (ENE) 803 3.6 -24.9°
